When you browse on this site, cookies collect data to enhance your experience and personalize the content and advertising you see.
Visit our Privacy Policy to learn more. By continuing to use the site, you agree to this use of cookies and data.
  • In Hungary
  • List of Countries
  • For 7 days
  • Water Temperature
  • Satellite Maps
  • Weather Map
  • News
  • Weather Widgets
  • user-avatar
    Login

    Hourly Weather Bodø

    Today, 21 March, Thursday

    Time Temperature Precipitation Wind Pressure Humidity
    00:00 -1°C° 0.3 mm 8 mps 753 mmHg 84%
    01:00 -1°C° 0 mm 7 mps 753 mmHg 83%
    02:00 -2°C° 0.1 mm 6 mps 753 mmHg 83%
    03:00 -2°C° 0.1 mm 6 mps 752 mmHg 83%
    04:00 -1°C° 0.1 mm 5 mps 752 mmHg 83%
    05:00 -1°C° 0 mm 5 mps 751 mmHg 82%
    06:00 -2°C° 0 mm 5 mps 750 mmHg 82%
    07:00 -1°C° 0 mm 5 mps 749 mmHg 82%
    08:00 -1°C° 0.5 mm 5 mps 748 mmHg 84%
    09:00 -2°C° 0.5 mm 6 mps 747 mmHg 87%
    10:00 -2°C° 0.5 mm 7 mps 746 mmHg 89%
    11:00 -2°C° 0.6 mm 10 mps 746 mmHg 87%
    12:00 -1°C° 0.6 mm 14 mps 747 mmHg 85%
    13:00 -2°C° 0.6 mm 18 mps 748 mmHg 84%
    14:00 -2°C° 0.3 mm 16 mps 750 mmHg 80%
    15:00 -3°C° 0.3 mm 15 mps 752 mmHg 77%
    16:00 -4°C° 0.3 mm 14 mps 754 mmHg 74%
    17:00 -4°C° 0.3 mm 13 mps 755 mmHg 74%
    18:00 -3°C° 0.3 mm 12 mps 757 mmHg 75%
    19:00 -4°C° 0.3 mm 11 mps 758 mmHg 75%
    20:00 -4°C° 0.5 mm 11 mps 759 mmHg 75%
    21:00 -4°C° 0.5 mm 10 mps 760 mmHg 74%
    22:00 -4°C° 0.5 mm 9 mps 761 mmHg 74%
    23:00 -4°C° 0.3 mm 9 mps 761 mmHg 73%

    Tomorrow, 22 March, Friday

    Time Temperature Precipitation Wind Pressure Humidity
    00:00 -4°C° 0.3 mm 9 mps 762 mmHg 73%
    01:00 -4°C° 0.3 mm 9 mps 762 mmHg 73%
    02:00 -4°C° 0.1 mm 8 mps 762 mmHg 74%
    03:00 -4°C° 0.1 mm 7 mps 762 mmHg 76%
    04:00 -4°C° 0.1 mm 7 mps 762 mmHg 78%
    05:00 -4°C° 0.1 mm 6 mps 762 mmHg 79%
    06:00 -4°C° 0.1 mm 6 mps 762 mmHg 81%
    07:00 -4°C° 0.1 mm 6 mps 762 mmHg 83%
    08:00 -3°C° 0 mm 6 mps 762 mmHg 81%
    09:00 -2°C° 0 mm 6 mps 761 mmHg 80%
    10:00 -2°C° 0 mm 6 mps 761 mmHg 79%
    11:00 -1°C° 0 mm 6 mps 759 mmHg 79%
    12:00 -1°C° 0 mm 6 mps 758 mmHg 80%
    13:00 0°C° 0 mm 7 mps 756 mmHg 80%
    14:00 0°C° 0.3 mm 7 mps 754 mmHg 80%
    15:00 0°C° 0.3 mm 8 mps 752 mmHg 81%
    16:00 +1°C° 0.3 mm 9 mps 751 mmHg 81%
    17:00 +1°C° 1 mm 9 mps 749 mmHg 82%
    18:00 +1°C° 1 mm 9 mps 747 mmHg 83%
    19:00 +1°C° 1 mm 9 mps 746 mmHg 83%
    20:00 +1°C° 0.7 mm 9 mps 745 mmHg 87%
    21:00 +2°C° 0.7 mm 8 mps 744 mmHg 92%
    22:00 +2°C° 0.7 mm 8 mps 744 mmHg 96%
    23:00 +2°C° 0.4 mm 9 mps 743 mmHg 94%

    Day after tomorrow, 23 March, Saturday

    Time Temperature Precipitation Wind Pressure Humidity
    00:00 +2°C° 0.4 mm 9 mps 742 mmHg 93%
    01:00 +2°C° 0.4 mm 10 mps 741 mmHg 91%
    02:00 +1°C° 0.4 mm 11 mps 741 mmHg 88%
    03:00 0°C° 0.4 mm 12 mps 740 mmHg 84%
    04:00 0°C° 0.4 mm 12 mps 739 mmHg 81%
    05:00 -1°C° 0.3 mm 14 mps 738 mmHg 78%
    06:00 -1°C° 0.3 mm 15 mps 738 mmHg 74%
    07:00 -3°C° 0.3 mm 16 mps 737 mmHg 71%
    08:00 -3°C° 0.4 mm 17 mps 736 mmHg 76%
    09:00 -3°C° 0.4 mm 17 mps 735 mmHg 80%
    10:00 -3°C° 0.4 mm 17 mps 734 mmHg 84%
    11:00 -3°C° 0.4 mm 19 mps 732 mmHg 83%
    12:00 -4°C° 0.4 mm 21 mps 731 mmHg 81%
    13:00 -4°C° 0.4 mm 23 mps 729 mmHg 80%
    14:00 -4°C° 1 mm 22 mps 729 mmHg 78%
    15:00 -2°C° 1 mm 21 mps 729 mmHg 76%
    16:00 -1°C° 1 mm 20 mps 728 mmHg 74%
    17:00 -1°C° 0.9 mm 20 mps 730 mmHg 77%
    18:00 -2°C° 0.9 mm 21 mps 733 mmHg 81%
    19:00 -2°C° 0.9 mm 21 mps 735 mmHg 84%
    20:00 -3°C° 0.4 mm 20 mps 737 mmHg 84%
    21:00 -3°C° 0.4 mm 18 mps 739 mmHg 83%
    22:00 -4°C° 0.4 mm 17 mps 742 mmHg 83%
    23:00 -5°C° 0.5 mm 16 mps 743 mmHg 81%

    24 March, Sunday

    Time Temperature Precipitation Wind Pressure Humidity
    00:00 -5°C° 0.5 mm 15 mps 745 mmHg 80%
    01:00 -7°C° 0.5 mm 15 mps 746 mmHg 79%
    02:00 -6°C° 0.4 mm 14 mps 748 mmHg 78%
    03:00 -6°C° 0.4 mm 14 mps 749 mmHg 77%
    04:00 -6°C° 0.4 mm 14 mps 750 mmHg 76%
    05:00 -6°C° 0.2 mm 13 mps 751 mmHg 77%
    06:00 -6°C° 0.2 mm 12 mps 752 mmHg 77%
    07:00 -6°C° 0.2 mm 11 mps 753 mmHg 78%
    08:00 -5°C° 0.2 mm 10 mps 753 mmHg 77%
    09:00 -5°C° 0.2 mm 10 mps 754 mmHg 76%
    10:00 -4°C° 0.2 mm 9 mps 754 mmHg 75%
    11:00 -4°C° 0.1 mm 8 mps 754 mmHg 73%
    12:00 -3°C° 0.1 mm 7 mps 754 mmHg 72%
    13:00 -3°C° 0.1 mm 7 mps 755 mmHg 71%
    14:00 -2°C° 0 mm 5 mps 754 mmHg 71%
    15:00 -2°C° 0 mm 4 mps 754 mmHg 71%
    16:00 -1°C° 0 mm 3 mps 754 mmHg 71%
    17:00 -2°C° 0 mm 3 mps 753 mmHg 72%
    18:00 -4°C° 0 mm 4 mps 753 mmHg 73%
    19:00 -5°C° 0 mm 4 mps 753 mmHg 74%
    20:00 -7°C° 0 mm 5 mps 752 mmHg 73%
    21:00 -8°C° 0 mm 6 mps 751 mmHg 73%
    22:00 -9°C° 0 mm 6 mps 751 mmHg 73%
    23:00 -9°C° 0 mm 6 mps 750 mmHg 72%

    25 March, Monday

    Time Temperature Precipitation Wind Pressure Humidity
    00:00 -9°C° 0 mm 6 mps 750 mmHg 70%
    01:00 -9°C° 0 mm 6 mps 749 mmHg 69%
    02:00 -9°C° 0 mm 6 mps 749 mmHg 71%
    03:00 -9°C° 0 mm 6 mps 749 mmHg 73%
    04:00 -10°C° 0 mm 6 mps 748 mmHg 75%
    05:00 -9°C° 0 mm 6 mps 748 mmHg 77%
    06:00 -8°C° 0 mm 5 mps 748 mmHg 79%
    07:00 -7°C° 0 mm 5 mps 748 mmHg 81%
    08:00 -6°C° 0.1 mm 5 mps 748 mmHg 82%
    09:00 -5°C° 0.1 mm 5 mps 749 mmHg 83%
    10:00 -3°C° 0.1 mm 4 mps 749 mmHg 83%
    11:00 -3°C° 0.4 mm 4 mps 749 mmHg 85%
    12:00 -2°C° 0.4 mm 4 mps 749 mmHg 87%
    13:00 -1°C° 0.4 mm 4 mps 750 mmHg 88%
    14:00 -1°C° 0.3 mm 4 mps 751 mmHg 90%
    15:00 -1°C° 0.3 mm 4 mps 751 mmHg 91%
    16:00 -1°C° 0.3 mm 5 mps 752 mmHg 92%
    17:00 -1°C° 0.3 mm 5 mps 753 mmHg 91%
    18:00 -3°C° 0.3 mm 6 mps 754 mmHg 90%
    19:00 -4°C° 0.3 mm 6 mps 755 mmHg 89%
    20:00 -4°C° 0.3 mm 6 mps 756 mmHg 88%
    21:00 -4°C° 0.3 mm 6 mps 757 mmHg 87%
    22:00 -4°C° 0.3 mm 5 mps 758 mmHg 86%
    23:00 -4°C° 0.5 mm 6 mps 759 mmHg 86%

    26 March, Tuesday

    Time Temperature Precipitation Wind Pressure Humidity
    00:00 -4°C° 0.5 mm 7 mps 760 mmHg 87%
    01:00 -4°C° 0.5 mm 8 mps 761 mmHg 87%
    02:00 -4°C° 0.2 mm 7 mps 762 mmHg 84%
    03:00 -4°C° 0.2 mm 7 mps 762 mmHg 81%
    04:00 -5°C° 0.2 mm 6 mps 763 mmHg 79%
    05:00 -5°C° 0.2 mm 5 mps 763 mmHg 78%
    06:00 -5°C° 0.2 mm 5 mps 764 mmHg 78%
    07:00 -4°C° 0.2 mm 4 mps 764 mmHg 78%
    08:00 -3°C° 0.1 mm 4 mps 764 mmHg 76%
    09:00 -3°C° 0.1 mm 4 mps 765 mmHg 74%
    10:00 -2°C° 0.1 mm 3 mps 765 mmHg 71%
    11:00 -1°C° 0.1 mm 3 mps 765 mmHg 71%
    12:00 -1°C° 0.1 mm 3 mps 765 mmHg 71%
    13:00 -1°C° 0.1 mm 3 mps 765 mmHg 70%
    14:00 -2°C° 0 mm 4 mps 765 mmHg 71%
    15:00 -2°C° 0 mm 4 mps 764 mmHg 71%
    16:00 -2°C° 0 mm 4 mps 764 mmHg 72%
    17:00 -3°C° 0 mm 4 mps 764 mmHg 73%
    18:00 -5°C° 0 mm 5 mps 764 mmHg 73%
    19:00 -6°C° 0 mm 5 mps 763 mmHg 74%
    20:00 -6°C° 0 mm 5 mps 763 mmHg 74%
    21:00 -6°C° 0 mm 5 mps 762 mmHg 75%
    22:00 -8°C° 0 mm 6 mps 761 mmHg 76%
    23:00 -6°C° 0 mm 6 mps 761 mmHg 77%
    Show more